Location: Newark
(46.7000°N, 60.6000°W)
Time: 09:08:04
(UTC+00:00)

Transit 2A Rocket - Pass Details

Date: 02 November 2020
Orbit: 588 x 915 km, 66.7° (Epoch: 23 November)

Event Time Altitude Azimuth Distance (km) Brightness Sun altitude
Rises 10:34:20 0° 150° (SSE) 3,536 9.3 -2.8°
Reaches altitude 10° 10:38:54 10° 119° (ESE) 2,592 9.7 -2.1°
Maximum altitude 10:40:42 11° 101° (ESE) 2,484 9.6 -1.8°
Drops below altitude 10° 10:42:30 10° 84° (E) 2,573 9.0 -1.5°
Sets 10:46:57 0° 53° (NE) 3,468 8.9 -0.8°
